GW4997 Weather Reports


time (UTC)temp
C
wind
direction
speed
KPH
gust
KPH
rain 1hr
cm
rain 24hr
cm
rain mn
cm
humidity
%
barometer
mb
20260506211531 21 223 4.8 6.4 0.00 0.03 0.03 72 1007.6
20260506210517 21 259 3.2 6.4 0.00 0.03 0.03 72 1007.5
20260506205537 20 238 1.6 4.8 0.00 0.03 0.03 73 1007.4
20260506204517 20 237 3.2 8.0 0.00 0.03 0.03 73 1007.3
20260506203539 20 220 4.8 8.0 0.00 0.03 0.03 73 1007.3
20260506202517 20 228 4.8 12.9 0.00 0.03 0.03 73 1007.4
20260506201517 20 247 4.8 8.0 0.00 0.03 0.03 73 1007.4
20260506200518 20 238 4.8 11.3 0.00 0.03 0.03 74 1007.6
20260506195519 20 244 3.2 6.4 0.00 0.03 0.03 75 1007.8
20260506194518 20 245 3.2 4.8 0.00 0.03 0.03 76 1007.9
20260506193519 19 248 3.2 6.4 0.00 0.03 0.03 76 1008.0
20260506192525 19 250 3.2 9.7 0.00 0.03 0.03 76 1008.0
20260506191538 19 236 4.8 6.4 0.00 0.03 0.03 76 1008.1
20260506190519 19 251 1.6 6.4 0.00 0.03 0.03 77 1008.1
20260506185519 19 229 4.8 8.0 0.00 0.03 0.03 77 1008.3
20260506184519 19 231 4.8 14.5 0.00 0.03 0.03 77 1008.4
20260506183519 19 222 3.2 11.3 0.00 0.03 0.03 77 1008.5
20260506182519 19 215 4.8 16.1 0.00 0.03 0.03 76 1008.5
20260506181519 19 250 4.8 8.0 0.00 0.03 0.03 75 1008.4
20260506180519 19 240 3.2 8.0 0.00 0.03 0.03 75 1008.6
20260506175517 20 229 4.8 9.7 0.00 0.03 0.03 74 1008.8
20260506174520 20 234 4.8 9.7 0.00 0.03 0.03 71 1008.8
20260506173520 20 235 4.8 11.3 0.03 0.03 0.03 70 1008.7
20260506172517 20 231 3.2 9.7 0.03 0.03 0.03 69 1008.9
20260506171518 21 257 6.4 16.1 0.03 0.03 0.03 68 1008.8
20260506170518 20 226 3.2 6.4 0.03 0.03 0.03 70 1008.8
20260506165521 20 248 4.8 8.0 0.03 0.03 0.03 71 1009.0
20260506164521 21 237 3.2 4.8 0.03 0.03 0.03 72 1009.3
20260506163521 21 223 3.2 6.4 0.00 0.00 0.00 67 1009.3
20260506162521 21 251 4.8 9.7 0.00 0.00 0.00 65 1009.7
20260506161522 21 228 3.2 6.4 0.00 0.00 0.00 65 1009.9
20260506160516 21 235 4.8 9.7 0.00 0.00 0.00 65 1009.9
20260506155522 21 249 4.8 6.4 0.00 0.00 0.00 64 1009.9
20260506154522 21 246 3.2 6.4 0.00 0.00 0.00 65 1009.9
20260506153523 21 237 4.8 9.7 0.00 0.00 0.00 64 1010.0
20260506152542 21 257 3.2 6.4 0.00 0.00 0.00 64 1010.0
20260506151522 21 197 3.2 6.4 0.00 0.00 0.00 63 1009.9
20260506150522 21 230 3.2 4.8 0.00 0.00 0.00 63 1010.1
20260506145523 20 236 4.8 8.0 0.00 0.00 0.00 63 1010.0
20260506144523 20 222 3.2 6.4 0.00 0.00 0.00 64 1010.1
20260506143517 20 243 4.8 8.0 0.00 0.00 0.00 63 1010.1
20260506142523 21 219 3.2 6.4 0.00 0.00 0.00 63 1010.2
20260506141523 21 229 4.8 8.0 0.00 0.00 0.00 62 1010.2
20260506140524 21 237 4.8 8.0 0.00 0.00 0.00 63 1010.0
20260506135518 20 208 3.2 8.0 0.00 0.00 0.00 64 1010.0
20260506134518 21 226 4.8 9.7 0.00 0.00 0.00 63 1010.0
20260506133518 21 205 4.8 8.0 0.00 0.00 0.00 63 1010.0
20260506132538 21 220 4.8 14.5 0.00 0.00 0.00 62 1010.3
20260506131518 21 223 4.8 9.7 0.00 0.00 0.00 62 1010.5
20260506130525 21 251 4.8 8.0 0.00 0.00 0.00 63 1010.6
20260506125519 20 223 3.2 9.7 0.00 0.00 0.00 65 1010.6
20260506124524 20 220 3.2 8.0 0.00 0.00 0.00 66 1010.5
20260506123519 20 209 4.8 12.9 0.00 0.00 0.00 66 1010.5
20260506122519 19 235 4.8 9.7 0.00 0.00 0.00 68 1010.7
20260506121525 18 234 3.2 6.4 0.00 0.00 0.00 70 1010.6
20260506120546 18 253 1.6 6.4 0.00 0.00 0.00 70 1010.6
20260506115526 18 214 3.2 6.4 0.00 0.00 0.00 72 1010.7
20260506114520 18 208 3.2 9.7 0.00 0.00 0.00 73 1010.7
20260506113527 18 211 4.8 8.0 0.00 0.00 0.00 74 1010.7
20260506112526 17 201 3.2 6.4 0.00 0.00 0.00 75 1010.9
20260506111527 17 209 3.2 6.4 0.00 0.00 0.00 75 1010.9
20260506110526 17 223 3.2 6.4 0.00 0.00 0.00 76 1010.8
20260506105547 17 217 3.2 6.4 0.00 0.00 0.00 77 1010.7
20260506104548 16 216 1.6 4.8 0.00 0.00 0.00 78 1010.8
20260506103527 16 214 3.2 6.4 0.00 0.00 0.00 78 1010.9
20260506102528 16 210 3.2 4.8 0.00 0.00 0.00 79 1010.8
20260506101527 16 208 1.6 3.2 0.00 0.00 0.00 80 1010.7
20260506100527 16 205 3.2 4.8 0.00 0.00 0.00 79 1010.6
20260506095528 16 193 3.2 6.4 0.00 0.00 0.00 79 1010.6
20260506094528 17 195 1.6 4.8 0.00 0.00 0.00 79 1010.5
20260506093528 16 209 3.2 4.8 0.00 0.00 0.00 80 1010.5
20260506092529 17 181 3.2 4.8 0.00 0.00 0.00 80 1010.5
20260506091528 17 203 3.2 6.4 0.00 0.00 0.00 80 1010.6
20260506090529 17 206 1.6 3.2 0.00 0.00 0.00 80 1010.6
20260506085538 17 186 3.2 8.0 0.00 0.03 0.00 80 1010.7
20260506084518 17 203 3.2 9.7 0.00 0.03 0.00 80 1010.7
20260506083518 17 205 3.2 4.8 0.00 0.03 0.00 80 1010.8
20260506082538 17 194 3.2 8.0 0.00 0.03 0.00 80 1010.9
20260506081515 17 208 3.2 6.4 0.00 0.03 0.00 80 1010.8
20260506080515 17 204 3.2 6.4 0.00 0.03 0.00 80 1010.8
20260506073520 17 212 3.2 8.0 0.00 0.03 0.00 79 1010.7
20260506072520 17 190 1.6 6.4 0.00 0.03 0.00 79 1010.8
20260506071600 17 196 3.2 6.4 0.00 0.03 0.00 79 1010.9
20260506070520 17 209 1.6 6.4 0.00 0.03 0.00 78 1010.9
20260506061518 18 203 1.6 9.7 0.00 0.03 0.00 76 1010.9
20260506060518 18 188 1.6 9.7 0.00 0.03 0.00 76 1011.0
20260506050519 18 205 1.6 9.7 0.00 0.03 0.00 74 1011.2
20260506044519 19 207 3.2 8.0 0.00 0.03 0.00 73 1011.4
20260506043543 18 223 3.2 8.0 0.00 0.03 0.00 73 1011.4
20260506042520 19 227 1.6 6.4 0.00 0.03 0.00 73 1011.3
20260506041520 19 203 3.2 9.7 0.00 0.03 0.00 72 1011.2
20260506040517 19 223 3.2 9.7 0.00 0.03 0.00 72 1011.2
20260506035523 19 221 1.6 6.4 0.00 0.03 0.03 72 1011.2
20260506034520 19 187 1.6 6.4 0.00 0.03 0.03 71 1011.2
20260506033537 19 189 1.6 8.0 0.00 0.03 0.03 71 1011.3
20260506032518 19 219 3.2 8.0 0.00 0.03 0.03 71 1011.2
20260506031518 19 198 1.6 6.4 0.00 0.03 0.03 71 1011.2
20260506030521 18 188 3.2 9.7 0.00 0.03 0.03 71 1011.3
20260506025518 18 197 1.6 4.8 0.00 0.03 0.03 71 1011.3
20260506024519 18 187 3.2 6.4 0.00 0.03 0.03 71 1011.3
20260506023519 19 191 1.6 4.8 0.00 0.03 0.03 70 1011.3
20260506022519 19 173 1.6 3.2 0.00 0.03 0.03 69 1011.3
20260506021539 19 177 3.2 8.0 0.00 0.03 0.03 67 1011.3
20260506020519 20 229 1.6 4.8 0.00 0.03 0.03 66 1011.3
20260506015520 20 177 1.6 8.0 0.00 0.03 0.03 65 1011.2
20260506014520 20 178 3.2 8.0 0.00 0.03 0.03 64 1011.1
20260506013520 20 177 1.6 6.4 0.00 0.03 0.03 63 1011.0
20260506012537 20 220 3.2 8.0 0.00 0.03 0.03 62 1010.9
20260506011520 20 201 3.2 6.4 0.00 0.03 0.03 61 1010.8
20260506010518 21 208 1.6 6.4 0.00 0.03 0.03 61 1010.8
20260506005518 21 159 1.6 4.8 0.00 0.03 0.03 59 1010.6
20260506004518 21 181 1.6 4.8 0.00 0.03 0.03 58 1010.3
20260506003518 21 182 3.2 8.0 0.00 0.03 0.03 58 1010.2
20260506002518 22 215 1.6 6.4 0.00 0.03 0.03 57 1010.1
20260506001515 22 203 3.2 8.0 0.00 0.03 0.03 56 1010.1
20260506000516 22 223 1.6 4.8 0.00 0.03 0.03 56 1010.1